LPA300 UWWW-UUBW

Flight info

Callsign LPA300
Flight time 1h 14m
Altitude 38000
Route REDMI T750 OKSUD T787 URAGO
Aircraft A20N/M-SDE2E3FGHIRWXY/LB1

Departure

Time 2026-04-30 18:09
Airport Kurumoch International Airport (UWWW)

Arrival

Time 2026-04-30 19:23
Airport Zhukovsky International Airport (UUBW)
Time Latitude Longitude Altitude Speed Heading
2026-04-30 17:39 53.51095 50.15713 427 ft 0 kts 332°
2026-04-30 17:56 53.51072 50.15734 428 ft 2 kts 332°
2026-04-30 17:57 53.51029 50.15736 428 ft 2 kts 33°
2026-04-30 17:58 53.51013 50.15705 429 ft 0 kts 62°
2026-04-30 18:02 53.51034 50.15771 428 ft 17 kts 61°
2026-04-30 18:02 53.51133 50.16248 420 ft 12 kts 121°
2026-04-30 18:03 53.50914 50.16846 408 ft 23 kts 121°
2026-04-30 18:04 53.50584 50.17185 395 ft 21 kts 160°
2026-04-30 18:05 53.49994 50.17538 386 ft 21 kts 160°
2026-04-30 18:06 53.49466 50.17855 388 ft 18 kts 161°
2026-04-30 18:07 53.49427 50.18298 379 ft 16 kts 341°
2026-04-30 18:08 53.51138 50.17274 570 ft 160 kts 341°
2026-04-30 18:09 53.55475 50.14734 2947 ft 188 kts 344°
2026-04-30 18:10 53.61100 50.10667 4921 ft 259 kts 312°
2026-04-30 18:11 53.64696 49.99803 8370 ft 274 kts 297°
2026-04-30 18:11 53.67481 49.91204 10685 ft 290 kts 297°
2026-04-30 18:12 53.70502 49.81910 12739 ft 310 kts 296°
2026-04-30 18:13 53.72579 49.75511 14196 ft 318 kts 295°
2026-04-30 18:13 53.75436 49.66664 16083 ft 327 kts 295°
2026-04-30 18:14 53.77998 49.58717 17659 ft 335 kts 294°
2026-04-30 18:15 53.81356 49.48265 19580 ft 344 kts 294°
2026-04-30 18:15 53.84795 49.37524 21563 ft 350 kts 292°
2026-04-30 18:16 53.87107 49.30261 22847 ft 354 kts 291°
2026-04-30 18:16 53.89448 49.22880 24084 ft 359 kts 291°
2026-04-30 18:17 53.90633 49.19141 24671 ft 361 kts 291°
2026-04-30 18:17 53.91826 49.15367 25180 ft 364 kts 291°
2026-04-30 18:17 53.94246 49.07742 26100 ft 373 kts 292°
2026-04-30 18:18 53.95598 49.03962 26504 ft 380 kts 295°
2026-04-30 18:18 53.97030 49.00185 26943 ft 384 kts 296°
2026-04-30 18:18 53.98478 48.96399 27372 ft 387 kts 296°
2026-04-30 18:18 53.99946 48.92560 27780 ft 390 kts 296°
2026-04-30 18:19 54.01425 48.88688 28192 ft 393 kts 296°
2026-04-30 18:19 54.02920 48.84764 28586 ft 396 kts 296°
2026-04-30 18:19 54.04409 48.80848 28919 ft 399 kts 296°
2026-04-30 18:19 54.05921 48.76854 29213 ft 402 kts 296°
2026-04-30 18:20 54.07429 48.72873 29515 ft 405 kts 296°
2026-04-30 18:20 54.08951 48.68847 29790 ft 408 kts 296°
2026-04-30 18:20 54.10469 48.64823 30053 ft 410 kts 297°
2026-04-30 18:20 54.12018 48.60749 30315 ft 413 kts 297°
2026-04-30 18:21 54.13581 48.56631 30555 ft 415 kts 297°
2026-04-30 18:21 54.15141 48.52501 30786 ft 417 kts 297°
2026-04-30 18:21 54.16707 48.48335 30989 ft 419 kts 297°
2026-04-30 18:21 54.18290 48.44115 31150 ft 422 kts 297°
2026-04-30 18:22 54.19856 48.39922 31336 ft 422 kts 297°
2026-04-30 18:22 54.23006 48.31464 31693 ft 424 kts 296°
2026-04-30 18:22 54.24585 48.27205 31900 ft 425 kts 297°
2026-04-30 18:23 54.26158 48.22955 32048 ft 426 kts 297°
2026-04-30 18:23 54.27704 48.18646 32210 ft 426 kts 296°
2026-04-30 18:23 54.29215 48.14310 32393 ft 426 kts 296°
2026-04-30 18:23 54.30724 48.09954 32580 ft 427 kts 296°
2026-04-30 18:24 54.33747 48.01223 32933 ft 429 kts 296°
2026-04-30 18:24 54.35277 47.96806 33113 ft 430 kts 297°
2026-04-30 18:24 54.36803 47.92400 33300 ft 430 kts 297°
2026-04-30 18:25 54.38311 47.88039 33474 ft 431 kts 297°
2026-04-30 18:25 54.41374 47.79167 33872 ft 433 kts 297°
2026-04-30 18:25 54.42901 47.74731 34096 ft 433 kts 297°
2026-04-30 18:26 54.45965 47.65806 34552 ft 433 kts 297°
2026-04-30 18:26 54.47488 47.61359 34770 ft 433 kts 297°
2026-04-30 18:26 54.49004 47.56923 34976 ft 433 kts 297°
2026-04-30 18:27 54.52028 47.48047 35389 ft 432 kts 297°
2026-04-30 18:27 54.53541 47.43594 35573 ft 433 kts 297°
2026-04-30 18:28 54.56563 47.34676 35910 ft 434 kts 296°
2026-04-30 18:28 54.58072 47.30204 36075 ft 434 kts 296°
2026-04-30 18:28 54.61085 47.21245 36414 ft 434 kts 296°
2026-04-30 18:29 54.62593 47.16758 36571 ft 434 kts 297°
2026-04-30 18:29 54.67126 47.03224 37019 ft 435 kts 297°
2026-04-30 18:30 54.70095 46.94144 37269 ft 436 kts 296°
2026-04-30 18:30 54.73042 46.85003 37466 ft 438 kts 296°
2026-04-30 18:31 54.77478 46.71227 37737 ft 441 kts 296°
2026-04-30 18:32 54.80490 46.61945 37958 ft 443 kts 298°
2026-04-30 18:32 54.82121 46.57499 38057 ft 444 kts 302°
2026-04-30 18:33 54.87629 46.44562 38053 ft 443 kts 298°
2026-04-30 18:33 54.91728 46.30291 38066 ft 441 kts 293°
2026-04-30 18:34 54.95706 46.15995 38064 ft 441 kts 294°
2026-04-30 18:35 54.98380 46.06457 38070 ft 441 kts 294°
2026-04-30 18:35 55.01078 45.96825 38075 ft 442 kts 294°
2026-04-30 18:36 55.05084 45.82465 38075 ft 442 kts 294°
2026-04-30 18:37 55.09094 45.68001 38074 ft 442 kts 294°
2026-04-30 18:37 55.11760 45.58383 38071 ft 442 kts 294°
2026-04-30 18:38 55.14437 45.48724 38073 ft 442 kts 294°
2026-04-30 18:38 55.17072 45.39126 38075 ft 442 kts 294°
2026-04-30 18:39 55.19721 45.29406 38075 ft 442 kts 293°
2026-04-30 18:39 55.22340 45.19727 38075 ft 442 kts 293°
2026-04-30 18:40 55.24950 45.10049 38077 ft 442 kts 294°
2026-04-30 18:40 55.27552 45.00372 38079 ft 442 kts 294°
2026-04-30 18:41 55.30153 44.90653 38082 ft 442 kts 294°
2026-04-30 18:41 55.32747 44.80923 38082 ft 442 kts 294°
2026-04-30 18:42 55.35331 44.71187 38085 ft 442 kts 294°
2026-04-30 18:42 55.37154 44.60973 38086 ft 439 kts 277°
2026-04-30 18:42 55.37505 44.55612 38088 ft 439 kts 275°
2026-04-30 18:45 55.40627 43.97189 38099 ft 439 kts 275°
2026-04-30 18:46 55.41182 43.86514 38100 ft 440 kts 275°
2026-04-30 18:46 55.41729 43.75847 38098 ft 440 kts 275°
2026-04-30 18:47 55.42264 43.65214 38103 ft 439 kts 275°
2026-04-30 18:47 55.42789 43.54557 38102 ft 439 kts 275°
2026-04-30 18:48 55.43306 43.43899 38103 ft 439 kts 275°
2026-04-30 18:48 55.43549 43.33188 38106 ft 439 kts 270°
2026-04-30 18:49 55.43581 43.22499 38102 ft 440 kts 270°
2026-04-30 18:49 55.43626 43.11740 38109 ft 440 kts 270°
2026-04-30 18:50 55.43681 43.00952 38104 ft 441 kts 270°
2026-04-30 18:50 55.43734 42.90212 38114 ft 441 kts 270°
2026-04-30 18:51 55.43779 42.79475 38122 ft 440 kts 270°
2026-04-30 18:51 55.43814 42.68764 38119 ft 440 kts 270°
2026-04-30 18:52 55.43843 42.58013 38125 ft 440 kts 270°
2026-04-30 18:52 55.43863 42.47311 37878 ft 440 kts 270°
2026-04-30 18:52 55.43868 42.41983 37579 ft 437 kts 271°
2026-04-30 18:53 55.43870 42.36643 37229 ft 434 kts 271°
2026-04-30 18:53 55.43871 42.31362 36729 ft 435 kts 270°
2026-04-30 18:53 55.43870 42.26083 36159 ft 438 kts 270°
2026-04-30 18:53 55.43866 42.20658 35476 ft 443 kts 270°
2026-04-30 18:54 55.43860 42.15265 34779 ft 448 kts 270°
2026-04-30 18:54 55.43852 42.09795 34120 ft 450 kts 270°
2026-04-30 18:54 55.43841 42.04326 33653 ft 446 kts 270°
2026-04-30 18:54 55.43828 41.98914 33240 ft 443 kts 270°
2026-04-30 18:55 55.43813 41.93519 32884 ft 441 kts 270°
2026-04-30 18:55 55.43776 41.82863 32098 ft 439 kts 270°
2026-04-30 18:55 55.43753 41.77509 31754 ft 437 kts 270°
2026-04-30 18:56 55.43702 41.66987 31148 ft 429 kts 270°
2026-04-30 18:56 55.43674 41.61817 30803 ft 425 kts 270°
2026-04-30 18:56 55.43645 41.56652 30366 ft 422 kts 270°
2026-04-30 18:57 55.43580 41.46417 29519 ft 414 kts 269°
2026-04-30 18:57 55.43545 41.41462 29355 ft 403 kts 269°
2026-04-30 18:57 55.43508 41.36591 29129 ft 394 kts 269°
2026-04-30 18:58 55.43432 41.27122 28382 ft 387 kts 268°
2026-04-30 18:58 55.43391 41.22380 27960 ft 385 kts 268°
2026-04-30 18:58 55.43349 41.17680 27506 ft 382 kts 268°
2026-04-30 18:59 55.43261 41.08506 26623 ft 376 kts 268°
2026-04-30 19:00 55.43118 40.94885 25299 ft 368 kts 267°
2026-04-30 19:00 55.43066 40.90403 24857 ft 365 kts 267°
2026-04-30 19:00 55.42961 40.81582 23960 ft 360 kts 267°
2026-04-30 19:01 55.42849 40.72873 23029 ft 357 kts 268°
2026-04-30 19:01 55.42791 40.68514 22561 ft 355 kts 268°
2026-04-30 19:02 55.42674 40.59917 21657 ft 351 kts 268°
2026-04-30 19:02 55.42552 40.51411 20743 ft 347 kts 268°
2026-04-30 19:03 55.42425 40.43005 19850 ft 344 kts 269°
2026-04-30 19:03 55.42292 40.34652 18960 ft 341 kts 268°
2026-04-30 19:04 55.42158 40.26382 18131 ft 335 kts 269°
2026-04-30 19:04 55.42020 40.18258 17325 ft 330 kts 269°
2026-04-30 19:05 55.41880 40.10283 16492 ft 325 kts 269°
2026-04-30 19:05 55.41735 40.02362 15657 ft 321 kts 269°
2026-04-30 19:06 55.41588 39.94604 15176 ft 317 kts 269°
2026-04-30 19:06 55.41514 39.90717 15169 ft 318 kts 269°
2026-04-30 19:06 55.41360 39.83037 14614 ft 314 kts 269°
2026-04-30 19:07 55.41205 39.75534 14071 ft 301 kts 270°
2026-04-30 19:07 55.41128 39.71869 13684 ft 300 kts 270°
2026-04-30 19:08 55.40974 39.64611 12918 ft 296 kts 270°
2026-04-30 19:08 55.40817 39.57441 12167 ft 292 kts 270°
2026-04-30 19:08 55.40737 39.53872 11784 ft 291 kts 270°
2026-04-30 19:09 55.40577 39.46830 11028 ft 288 kts 270°
2026-04-30 19:09 55.40494 39.43305 10646 ft 286 kts 270°
2026-04-30 19:09 55.40412 39.39861 10271 ft 285 kts 270°
2026-04-30 19:10 55.40246 39.32968 9520 ft 282 kts 269°
2026-04-30 19:10 55.40077 39.26135 8783 ft 278 kts 269°
2026-04-30 19:11 55.39994 39.22782 8416 ft 276 kts 269°
2026-04-30 19:11 55.39824 39.16090 7678 ft 273 kts 269°
2026-04-30 19:11 55.39741 39.12752 7307 ft 271 kts 271°
2026-04-30 19:12 55.39810 39.09509 6941 ft 268 kts 276°
2026-04-30 19:12 55.39970 39.06242 6574 ft 266 kts 277°
2026-04-30 19:12 55.40132 39.03055 6212 ft 264 kts 277°
2026-04-30 19:13 55.40434 38.96630 5476 ft 261 kts 276°
2026-04-30 19:13 55.40704 38.90329 4761 ft 259 kts 276°
2026-04-30 19:13 55.40834 38.87171 4400 ft 257 kts 276°
2026-04-30 19:14 55.40960 38.84060 4045 ft 256 kts 276°
2026-04-30 19:14 55.41084 38.80968 3687 ft 255 kts 276°
2026-04-30 19:14 55.41206 38.77901 3392 ft 250 kts 276°
2026-04-30 19:14 55.41325 38.74894 3223 ft 242 kts 276°
2026-04-30 19:15 55.41437 38.71994 3056 ft 234 kts 276°
2026-04-30 19:15 55.41653 38.66479 2731 ft 219 kts 276°
2026-04-30 19:15 55.41756 38.63842 2521 ft 215 kts 276°
2026-04-30 19:16 55.41857 38.61240 2236 ft 214 kts 276°
2026-04-30 19:16 55.41958 38.58637 1996 ft 211 kts 276°
2026-04-30 19:16 55.42154 38.53455 1961 ft 213 kts 276°
2026-04-30 19:17 55.42251 38.50867 1960 ft 213 kts 276°
2026-04-30 19:17 55.42444 38.45651 1956 ft 214 kts 276°
2026-04-30 19:17 55.42540 38.43073 1961 ft 213 kts 276°
2026-04-30 19:18 55.43200 38.39109 1939 ft 187 kts 305°
2026-04-30 19:18 55.44224 38.36847 2034 ft 174 kts 314°
2026-04-30 19:18 55.45007 38.35378 1975 ft 155 kts 315°
2026-04-30 19:19 55.45698 38.34064 1967 ft 140 kts 313°
2026-04-30 19:19 55.46339 38.32810 1959 ft 136 kts 313°
2026-04-30 19:19 55.47588 38.30324 1969 ft 135 kts 313°
2026-04-30 19:20 55.48215 38.29069 1971 ft 135 kts 313°
2026-04-30 19:20 55.48833 38.27832 1833 ft 135 kts 313°
2026-04-30 19:20 55.50077 38.25347 1475 ft 134 kts 313°
2026-04-30 19:21 55.50695 38.24115 1292 ft 134 kts 312°
2026-04-30 19:21 55.51923 38.21666 917 ft 133 kts 311°
2026-04-30 19:22 55.53149 38.19219 542 ft 132 kts 312°
2026-04-30 19:22 55.54624 38.16286 365 ft 52 kts 311°
2026-04-30 19:23 55.55001 38.15437 367 ft 12 kts 242°
2026-04-30 19:24 55.54932 38.15317 367 ft 7 kts 221°
2026-04-30 19:24 55.54919 38.15297 367 ft 0 kts 221°
2026-04-30 19:25 55.54983 38.15014 363 ft 14 kts 311°
2026-04-30 19:26 55.55175 38.14632 366 ft 20 kts 311°
2026-04-30 19:26 55.55360 38.14264 370 ft 22 kts 311°
2026-04-30 19:26 55.55459 38.14069 374 ft 19 kts 311°
2026-04-30 19:27 55.55645 38.13697 382 ft 21 kts 311°
2026-04-30 19:27 55.55818 38.13351 390 ft 16 kts 311°
2026-04-30 19:28 55.55902 38.13184 392 ft 19 kts 311°
2026-04-30 19:28 55.56052 38.12892 396 ft 11 kts 312°
2026-04-30 19:29 55.56126 38.12661 397 ft 11 kts 311°
2026-04-30 19:29 55.56168 38.12582 397 ft 6 kts 321°
2026-04-30 19:30 55.56239 38.12373 396 ft 4 kts 225°
2026-04-30 19:30 55.56212 38.12329 396 ft 0 kts 221°